GW0093 Weather Reports


time (UTC)temp
F
wind
direction
speed
knots
gust
knots
rain 1hr
in
rain 24hr
in
rain mn
in
humidity
%
barometer
mb
20260504173805 74 0 0.0 0.0 0.00 0.00 0.00 38 1017.6
20260504172805 74 0 0.0 0.0 0.00 0.00 0.00 38 1017.6
20260504172305 74 0 0.0 0.0 0.00 0.00 0.00 38 1017.6
20260504171805 74 0 0.0 0.0 0.00 0.00 0.00 38 1017.6
20260504171304 74 0 0.0 0.0 0.00 0.00 0.00 38 1017.6
20260504170805 74 0 0.0 0.0 0.00 0.00 0.00 38 1017.6
20260504170305 74 0 0.0 0.0 0.00 0.00 0.00 38 1017.6
20260504160304 74 0 0.0 0.0 0.00 0.00 0.00 42 1017.9
20260504150805 71 0 0.0 0.0 0.00 0.00 0.00 50 1018.3
20260504150305 71 0 0.0 0.0 0.00 0.00 0.00 55 1018.3
20260504141304 66 0 0.0 0.0 0.00 0.00 0.00 67 1018.3
20260504140804 66 0 0.0 0.0 0.00 0.00 0.00 67 1018.3
20260504140305 66 0 0.0 0.0 0.00 0.00 0.00 73 1018.3
20260504130804 58 0 0.0 0.0 0.00 0.00 0.00 86 1018.3
20260504130304 58 0 0.0 0.0 0.00 0.00 0.00 86 1018.3
20260504120304 50 0 0.0 0.0 0.00 0.00 0.00 92 1017.9
20260504110303 50 0 0.0 0.0 0.00 0.00 0.00 96 1017.6
20260504100304 50 0 0.0 0.0 0.00 0.00 0.00 96 1017.9
20260504081806 53 0 0.0 0.0 0.00 0.00 0.00 92 1017.9
20260504081306 53 0 0.0 0.0 0.00 0.00 0.00 92 1017.9
20260504080805 53 0 0.0 0.0 0.00 0.00 0.00 92 1017.9
20260504080305 53 0 0.0 0.0 0.00 0.00 0.00 92 1017.9
20260504070306 55 0 0.0 0.0 0.00 0.00 0.00 89 1017.9
20260504045806 58 0 0.0 0.0 0.00 0.00 0.00 83 1019.3
20260504045305 58 0 0.0 0.0 0.00 0.00 0.00 83 1019.3
20260504044806 58 0 0.0 0.0 0.00 0.00 0.00 83 1019.3
20260504044306 58 0 0.0 0.0 0.00 0.00 0.00 83 1019.3
20260504043806 58 0 0.0 0.0 0.00 0.00 0.00 83 1019.3
20260504042806 58 0 0.0 0.0 0.00 0.00 0.00 83 1019.3
20260504042306 58 0 0.0 0.0 0.00 0.00 0.00 83 1019.3
20260504041806 58 0 0.0 0.0 0.00 0.00 0.00 83 1019.3
20260504040305 58 0 0.0 0.0 0.00 0.00 0.00 83 1019.3
20260504035806 59 0 0.0 0.0 0.00 0.00 0.00 80 1019.0
20260504035306 59 0 0.0 0.0 0.00 0.00 0.00 80 1019.0
20260504034805 59 0 0.0 0.0 0.00 0.00 0.00 80 1019.0
20260504034306 59 0 0.0 0.0 0.00 0.00 0.00 80 1019.0
20260504033806 59 0 0.0 0.0 0.00 0.00 0.00 80 1019.0
20260504033306 59 0 0.0 0.0 0.00 0.00 0.00 80 1019.0
20260504032805 59 0 0.0 0.0 0.00 0.00 0.00 80 1019.0
20260504032305 59 0 0.0 0.0 0.00 0.00 0.00 80 1019.0
20260504031806 59 0 0.0 0.0 0.00 0.00 0.00 80 1019.0
20260504031305 59 0 0.0 0.0 0.00 0.00 0.00 80 1019.0
20260504030306 59 0 0.0 0.0 0.00 0.00 0.00 80 1019.0
20260504025306 61 0 0.0 0.0 0.00 0.00 0.00 72 1018.6
20260504024805 61 0 0.0 0.0 0.00 0.00 0.00 72 1018.6
20260504023806 61 0 0.0 0.0 0.00 0.00 0.00 72 1018.6
20260504023306 61 0 0.0 0.0 0.00 0.00 0.00 72 1018.6
20260504022805 61 0 0.0 0.0 0.00 0.00 0.00 72 1018.6
20260504022305 61 0 0.0 0.0 0.00 0.00 0.00 72 1018.6
20260504021805 61 0 0.0 0.0 0.00 0.00 0.00 72 1018.6
20260504021306 61 0 0.0 0.0 0.00 0.00 0.00 72 1018.6
20260504020806 61 0 0.0 0.0 0.00 0.00 0.00 72 1018.6
20260504020305 61 0 0.0 0.0 0.00 0.00 0.00 72 1018.6
20260504015806 65 0 0.0 0.0 0.00 0.00 0.00 65 1018.3
20260504014805 65 0 0.0 0.0 0.00 0.00 0.00 65 1018.3
20260504014306 65 0 0.0 0.0 0.00 0.00 0.00 65 1018.3
20260504013805 65 0 0.0 0.0 0.00 0.00 0.00 65 1018.3
20260504013306 65 0 0.0 0.0 0.00 0.00 0.00 65 1018.3
20260504012305 65 0 0.0 0.0 0.00 0.00 0.00 65 1018.3
20260504011806 65 0 0.0 0.0 0.00 0.00 0.00 65 1018.3
20260504011305 65 0 0.0 0.0 0.00 0.00 0.00 65 1018.3
20260504010805 65 0 0.0 0.0 0.00 0.00 0.00 65 1018.3
20260504010305 65 0 0.0 0.0 0.00 0.00 0.00 58 1018.3
20260504005804 71 0 0.0 0.0 0.00 0.00 0.00 42 1017.9
20260504004805 71 0 0.0 0.0 0.00 0.00 0.00 42 1017.9
20260504004306 71 0 0.0 0.0 0.00 0.00 0.00 42 1017.9
20260504003806 71 0 0.0 0.0 0.00 0.00 0.00 42 1017.9
20260504003305 71 0 0.0 0.0 0.00 0.00 0.00 42 1017.9
20260504002805 71 0 0.0 0.0 0.00 0.00 0.00 42 1017.9
20260504002305 71 0 0.0 0.0 0.00 0.00 0.00 42 1017.9
20260504001806 71 0 0.0 0.0 0.00 0.00 0.00 42 1017.9
20260504001305 71 0 0.0 0.0 0.00 0.00 0.00 42 1017.9
20260504000805 71 0 0.0 0.0 0.00 0.00 0.00 42 1017.9
20260504000305 71 0 0.0 0.0 0.00 0.00 0.00 42 1017.9
20260503235306 73 0 0.0 0.0 0.00 0.00 0.00 39 1018.3
20260503234806 73 0 0.0 0.0 0.00 0.00 0.00 39 1018.3
20260503233305 73 0 0.0 0.0 0.00 0.00 0.00 39 1018.3
20260503232306 73 0 0.0 0.0 0.00 0.00 0.00 39 1018.3
20260503231805 73 0 0.0 0.0 0.00 0.00 0.00 39 1018.3
20260503231305 73 0 0.0 0.0 0.00 0.00 0.00 39 1018.3
20260503230805 73 0 0.0 0.0 0.00 0.00 0.00 39 1018.3
20260503230304 73 0 0.0 0.0 0.00 0.00 0.00 39 1018.3
20260503225805 74 0 0.0 0.0 0.00 0.00 0.00 36 1018.6
20260503225305 74 0 0.0 0.0 0.00 0.00 0.00 36 1018.6
20260503224805 74 0 0.0 0.0 0.00 0.00 0.00 36 1018.6
20260503224305 74 0 0.0 0.0 0.00 0.00 0.00 36 1018.6
20260503223805 74 0 0.0 0.0 0.00 0.00 0.00 36 1018.6
20260503223305 74 0 0.0 0.0 0.00 0.00 0.00 36 1018.6
20260503222805 74 0 0.0 0.0 0.00 0.00 0.00 36 1018.6
20260503222305 74 0 0.0 0.0 0.00 0.00 0.00 36 1018.6
20260503221304 74 0 0.0 0.0 0.00 0.00 0.00 36 1018.6
20260503220805 74 0 0.0 0.0 0.00 0.00 0.00 36 1018.6
20260503220305 74 0 0.0 0.0 0.00 0.00 0.00 36 1018.6
20260503215805 74 0 0.0 0.0 0.00 0.00 0.00 35 1019.3
20260503215306 74 0 0.0 0.0 0.00 0.00 0.00 35 1019.3
20260503214805 74 0 0.0 0.0 0.00 0.00 0.00 35 1019.3
20260503214306 74 0 0.0 0.0 0.00 0.00 0.00 35 1019.3
20260503213805 74 0 0.0 0.0 0.00 0.00 0.00 35 1019.3
20260503212805 74 0 0.0 0.0 0.00 0.00 0.00 35 1019.3
20260503212306 74 0 0.0 0.0 0.00 0.00 0.00 35 1019.3
20260503211805 74 0 0.0 0.0 0.00 0.00 0.00 35 1019.3
20260503211305 74 0 0.0 0.0 0.00 0.00 0.00 35 1019.3
20260503210305 74 0 0.0 0.0 0.00 0.00 0.00 35 1019.3
20260503205805 74 0 0.0 0.0 0.00 0.00 0.00 34 1020.0
20260503205305 74 0 0.0 0.0 0.00 0.00 0.00 34 1020.0
20260503204805 74 0 0.0 0.0 0.00 0.00 0.00 34 1020.0
20260503204304 74 0 0.0 0.0 0.00 0.00 0.00 34 1020.0
20260503203804 74 0 0.0 0.0 0.00 0.00 0.00 34 1020.0
20260503203305 74 0 0.0 0.0 0.00 0.00 0.00 34 1020.0
20260503202305 74 0 0.0 0.0 0.00 0.00 0.00 34 1020.0
20260503201805 74 0 0.0 0.0 0.00 0.00 0.00 34 1020.0
20260503201305 74 0 0.0 0.0 0.00 0.00 0.00 34 1020.0
20260503200305 74 0 0.0 0.0 0.00 0.00 0.00 34 1020.0
20260503195805 75 0 0.0 0.0 0.00 0.00 0.00 29 1021.0
20260503195305 75 0 0.0 0.0 0.00 0.00 0.00 29 1021.0
20260503194305 75 0 0.0 0.0 0.00 0.00 0.00 29 1021.0
20260503193805 75 0 0.0 0.0 0.00 0.00 0.00 29 1021.0
20260503193306 75 0 0.0 0.0 0.00 0.00 0.00 29 1021.0
20260503192805 75 0 0.0 0.0 0.00 0.00 0.00 29 1021.0
20260503192305 75 0 0.0 0.0 0.00 0.00 0.00 29 1021.0
20260503191804 75 0 0.0 0.0 0.00 0.00 0.00 29 1021.0
20260503190805 75 0 0.0 0.0 0.00 0.00 0.00 29 1021.0
20260503190305 75 0 0.0 0.0 0.00 0.00 0.00 29 1021.0
20260503185804 74 0 0.0 0.0 0.00 0.00 0.00 30 1021.3
20260503185305 74 0 0.0 0.0 0.00 0.00 0.00 30 1021.3
20260503184804 74 0 0.0 0.0 0.00 0.00 0.00 30 1021.3
20260503183804 74 0 0.0 0.0 0.00 0.00 0.00 30 1021.3
20260503183304 74 0 0.0 0.0 0.00 0.00 0.00 30 1021.3
20260503182805 74 0 0.0 0.0 0.00 0.00 0.00 30 1021.3
20260503181305 74 0 0.0 0.0 0.00 0.00 0.00 30 1021.3
20260503180804 74 0 0.0 0.0 0.00 0.00 0.00 30 1021.3
20260503180304 74 0 0.0 0.0 0.00 0.00 0.00 30 1021.3
20260503175804 74 0 0.0 0.0 0.00 0.00 0.00 31 1022.7
20260503175305 74 0 0.0 0.0 0.00 0.00 0.00 31 1022.7
20260503174805 74 0 0.0 0.0 0.00 0.00 0.00 31 1022.7